Regional Weather Roundup
Issued by NWS

Home | Current Version | Previous Version | Text Only | Print | Product List | Glossary On
Versions: 1 2 3 4 5 6 7 8 9 10 11 12 13 14 15 16 17 18 19 20 21 22 23 24 25 26 27 28 29 30 31 32 33 34 35 36 37 38 39 40 41 42 43 44 45 46 47 48 49 50
000
ASUS43 KTOP 301959
RWRKS

WEATHER ROUNDUP FOR KANSAS
NATIONAL WEATHER SERVICE GOODLAND KS
300 PM CDT SAT JUL 30 2016

NOTE:  "FAIR" INDICATES FEW OR NO CLOUDS BELOW 12,000 FEET WITH NO
SIGNIFICANT WEATHER AND/OR OBSTRUCTIONS TO VISIBILITY.

KSZ001>006-013>018-027>032-041>047-302100-
NORTHWEST KANSAS

CITY           SKY/WX    TMP DP  RH WIND       PRES   REMARKS
GOODLAND       SUNNY     87  61  41 SE15G24   29.97F
HAYS           MOSUNNY   88  64  45 S10       29.95F
HILL CITY      MOSUNNY   88  68  51 S15G21    29.94F
RUSSELL        PTSUNNY   88  66  48 S14G23    29.94F
$$

KSZ061>065-074>080-084>089-302100-
SOUTHWEST KANSAS

CITY           SKY/WX    TMP DP  RH WIND       PRES   REMARKS
DODGE CITY     SUNNY     90  62  39 S15       29.96F
ELKHART          N/A     92  66  42 SW12        N/A
GARDEN CITY    SUNNY     88  64  44 S15       29.95F
GREAT BEND     SUNNY     86  68  54 S13       29.95F
LIBERAL        SUNNY     93  64  38 SW18G25   29.96F HX  95
$$

KSZ066>073-081>083-090>101-302100-
SOUTHEAST KANSAS

CITY           SKY/WX    TMP DP  RH WIND       PRES   REMARKS
CHANUTE        MOSUNNY   86  71  60 SE8G16    29.97F
COFFEYVILLE    CLOUDY    86  72  62 E7        29.95F
HUTCHINSON     SUNNY     87  67  51 SE10      29.96F
NEWTON         SUNNY     84  68  58 SE9       29.98F
PARSONS        CLOUDY    85  70  60 SE3       29.98F
WICHITA INTL   MOSUNNY   87  66  49 S8        29.96F
WICHITA JABRA  SUNNY     86  67  52 E10       29.96F
WINFIELD       SUNNY     86  70  58 E6        29.96F
$$

KSZ007>012-019>026-033>040-048>060-102>105-302100-
NORTHEAST KANSAS

CITY           SKY/WX    TMP DP  RH WIND       PRES   REMARKS
CONCORDIA      SUNNY     83  67  58 E13       29.97F
EMPORIA        SUNNY     86  69  56 SE12      29.97F
LAWRENCE       CLOUDY    85  68  56 S8        29.99F
MANHATTAN      MOSUNNY   80  67  64 NE13      29.98S
OLATHE IND     CLOUDY    84  67  56 SW3       30.02S
OLATHE EXE     CLOUDY    82  65  56 CALM      30.02R
SALINA         SUNNY     91  66  43 SE14G21   29.95F
TOPEKA BILLARD TSTM      72  65  78 NE8       30.01R
TOPEKA FORBES  PTSUNNY   77  64  64 N13G31    30.00F
$$




USA.gov is the U.S. government's official web portal to all federal, state and local government web resources and services.